ECHOSTAR 16

Last updated on Wed Sep 09 2026 00:02:59 GMT+0000 (Coordinated Universal Time)

1 39008U 12065A 26251.50419554 -.00000303 00000+0 00000+0 0 9998 2 39008 0.0063 136.8865 0002012 27.5826 303.1178 1.00271267 50489
UTC large
Height (km)
Speed (km/s)
/
Latitude / Longitude
Inclination (degrees)
Orbital Period (minutes)
Azimuth
Elevation
Range (km)
Doppler Factor

Next 0 passes for location: London (51.5072 / 0.1276)

No passes found over London.
ECHOSTAR 16